Location: Limerick
(52.6800°N, 8.6400°W)
Time: 15:04:27
(UTC+01:00)

Amateur Radio Satellites - All Passes

Search period start: 02 September 2014 14:34
Search period end: 03 September 2014 14:34
Location: Limerick, 52.6800°N, 8.6400°W

Satellite Date Start Highest point End Downlink Frequencies (MHz)
Time Altitude Azimuth
ITAMSAT 1 02 Sep 14:35:42 14:40:52 81° 72° (ENE) 14:46:04 435.822 SSB
Uribyol 2 02 Sep 14:44:59 14:50:09 83° 254° (WSW) 14:55:22 436.500 FM
MaSat-1 02 Sep 14:50:29 14:55:31 58° 310° (NW) 15:00:36 437.345 MHz
RS-15 02 Sep 14:54:20 15:05:06 56° 27° (NNE) 15:16:09 29.354 - 29.394 USB, Beacon 29.352 USB
TMSAT-1 02 Sep 14:59:02 15:04:07 50° 66° (ENE) 15:09:14 436.925 FM
Uosat F 02 Sep 14:59:23 15:02:12 15° 50° (NE) 15:05:01 435.120 FM
ISS 02 Sep 15:00:06 15:03:24 58° 195° (SSW) 15:06:41 145.800 FM
AO-27 02 Sep 15:05:38 15:10:45 61° 258° (WSW) 15:15:54 436.795 MHz FM
UOSAT-12 02 Sep 15:24:40 15:27:59 19° 246° (WSW) 15:31:16 437.025 FM, 437.400 FM
JAS-1B 02 Sep 15:31:12 15:40:36 59° 260° (W) 15:48:49 435.800 - 435.900 CW/SSB
Oscar 19 02 Sep 15:38:47 15:42:24 19° 272° (W) 15:46:03 437.125 CW, 437.150 USB
AO-Echo 02 Sep 15:43:36 15:47:51 28° 266° (W) 15:52:01 ?
Gurwin Techsat 1B 02 Sep 15:49:02 15:54:15 57° 259° (W) 15:59:30 435.225 FM
AO-7 02 Sep 15:51:23 15:59:28 58° 59° (ENE) 16:07:33 29.400 - 29.500 MHz
ITAMSAT 1 02 Sep 16:17:29 16:21:01 18° 272° (W) 16:24:35 435.822 SSB
Uribyol 2 02 Sep 16:27:37 16:30:28 15° 274° (W) 16:33:20 436.500 FM
JAS-2 02 Sep 16:28:16 16:31:03 14° 49° (NE) 16:33:46 435.800 - 435.900 CW/SSB, 435.910 FM
MaSat-1 02 Sep 16:29:50 16:33:33 20° 331° (NNW) 16:37:13 437.345 MHz
Uosat F 02 Sep 16:35:12 16:40:11 71° 70° (ENE) 16:45:11 435.120 FM
ISS 02 Sep 16:37:10 16:39:42 20° 214° (SSW) 16:42:15 145.800 FM
TMSAT-1 02 Sep 16:39:37 16:44:17 31° 266° (W) 16:48:58 436.925 FM
Sapphire 02 Sep 16:50:11 16:54:34 26° 111° (ESE) 16:58:58 437.095 MHz 1200 baud AX-25 AFSK
AO-27 02 Sep 16:50:44 16:51:22 10° 278° (W) 16:52:01 436.795 MHz FM
RS-15 02 Sep 17:07:11 17:18:07 73° 235° (SW) 17:29:27 29.354 - 29.394 USB, Beacon 29.352 USB
PCSat 02 Sep 17:18:25 17:23:29 43° 117° (ESE) 17:28:36 145.825 MHz
JAS-1B 02 Sep 17:27:29 17:32:41 16° 280° (W) 17:37:36 435.800 - 435.900 CW/SSB
Hamsat 02 Sep 17:28:38 17:32:16 27° 62° (ENE) 17:35:57 145.90 MHz
AO-7 02 Sep 17:44:39 17:52:32 45° 261° (W) 18:00:27 29.400 - 29.500 MHz
OPAL 02 Sep 18:01:01 18:06:04 46° 101° (ESE) 18:11:04 ?
JAS-2 02 Sep 18:09:37 18:15:20 64° 70° (ENE) 18:20:36 435.800 - 435.900 CW/SSB, 435.910 FM
MaSat-1 02 Sep 18:10:49 18:12:29 11° 355° (N) 18:14:08 437.345 MHz
Uosat F 02 Sep 18:15:51 18:19:30 20° 270° (W) 18:23:11 435.120 FM
HO-68 02 Sep 18:25:00 18:27:47 13° 30° (NNE) 18:30:34 435.675 MHz FM
Sapphire 02 Sep 18:32:08 18:37:33 72° 312° (NW) 18:43:00 437.095 MHz 1200 baud AX-25 AFSK
PCSat 02 Sep 19:01:40 19:06:55 48° 319° (NW) 19:12:12 145.825 MHz
Hamsat 02 Sep 19:03:53 19:08:03 45° 262° (W) 19:12:17 145.90 MHz
RS-15 02 Sep 19:20:40 19:28:33 23° 260° (W) 19:36:39 29.354 - 29.394 USB, Beacon 29.352 USB
Oscar 10/S400 02 Sep 19:22:40 19:39:30 31° 148° (SSE) 20:20:55 145.825 - 145.975 CW/USB, Beacon 145.810 USB
SO-67 02 Sep 19:31:31 19:34:57 64° 74° (ENE) 19:38:25 435.3500 MHz FM
OPAL 02 Sep 19:40:08 19:44:51 36° 301° (WNW) 19:49:34 ?
MaSat-1 02 Sep 19:48:52 19:51:36 15° 19° (NNE) 19:54:12 437.345 MHz
STRAND 1 02 Sep 19:49:39 19:54:12 31° 95° (E) 19:58:44 ?
JAS-2 02 Sep 19:56:17 20:00:54 24° 268° (W) 20:05:14 435.800 - 435.900 CW/SSB, 435.910 FM
HO-68 02 Sep 20:07:13 20:13:34 36° 54° (NE) 20:19:56 435.675 MHz FM
Sapphire 02 Sep 20:17:24 20:21:53 25° 335° (NNW) 20:26:23 437.095 MHz 1200 baud AX-25 AFSK
PCSat 02 Sep 20:47:33 20:51:38 21° 343° (NNW) 20:55:43 145.825 MHz
UKube-1 02 Sep 21:04:06 21:07:55 31° 63° (ENE) 21:11:44 145.840 MHz, 145.915 MHz
SO-67 02 Sep 21:06:53 21:08:25 12° 272° (W) 21:09:58 435.3500 MHz FM
Oscar 11 02 Sep 21:07:33 21:10:57 23° 60° (ENE) 21:14:22 145.825 FM, Beacon 2401.500 USB
MaSat-1 02 Sep 21:25:31 21:30:01 37° 43° (NE) 21:34:03 437.345 MHz
STRAND 1 02 Sep 21:28:42 21:33:35 47° 294° (WNW) 21:38:27 ?
FUNcube-1 02 Sep 21:41:44 21:44:55 21° 59° (ENE) 21:48:09 145.950 - 145.970 MHz USB
HO-68 02 Sep 21:53:51 22:00:57 66° 256° (WSW) 22:08:05 435.675 MHz FM
Sapphire 02 Sep 22:03:32 22:07:11 18° 1° (N) 22:10:50 437.095 MHz 1200 baud AX-25 AFSK
PCSat 02 Sep 22:33:13 22:37:01 19° 9° (N) 22:40:49 145.825 MHz
UKube-1 02 Sep 22:40:00 22:44:03 38° 262° (W) 22:48:08 145.840 MHz, 145.915 MHz
Oscar 11 02 Sep 22:42:33 22:46:50 55° 259° (W) 22:51:09 145.825 FM, Beacon 2401.500 USB
MaSat-1 02 Sep 23:02:41 23:07:07 42° 247° (WSW) 23:11:00 437.345 MHz
Saudisat 1A 02 Sep 23:08:29 23:12:41 45° 125° (SE) 23:16:54 436.775 MHz
KITSAT 1 02 Sep 23:09:47 23:16:30 30° 108° (ESE) 23:23:14 435.175 FM
STRAND 1 02 Sep 23:10:25 23:11:38 11° 315° (NW) 23:12:52 ?
FUNcube-1 02 Sep 23:16:46 23:20:57 60° 259° (W) 23:25:16 145.950 - 145.970 MHz USB
AO-40 02 Sep 23:25:55 04:41:21 29° 171° (S) 06:47:23 Beacon 2401.320
HO-68 02 Sep 23:46:12 23:50:06 15° 278° (W) 23:54:01 435.675 MHz FM
Sapphire 02 Sep 23:47:50 23:52:26 27° 27° (NNE) 23:57:01 437.095 MHz 1200 baud AX-25 AFSK
PCSat 03 Sep 00:17:01 00:22:01 35° 35° (NE) 00:27:00 145.825 MHz
Saudisat 1A 03 Sep 00:48:09 00:52:21 41° 326° (NW) 00:56:34 436.775 MHz
KITSAT 1 03 Sep 01:03:00 01:11:07 86° 311° (NW) 01:19:17 435.175 FM
Sapphire 03 Sep 01:31:12 01:36:41 79° 50° (NE) 01:42:07 437.095 MHz 1200 baud AX-25 AFSK
PCSat 03 Sep 02:00:26 02:05:50 66° 237° (WSW) 02:11:12 145.825 MHz
Oscar 19 03 Sep 02:03:43 02:07:19 19° 88° (E) 02:10:53 437.125 CW, 437.150 USB
Saudisat 1A 03 Sep 02:29:48 02:33:01 19° 349° (N) 02:36:14 436.775 MHz
Oscar 16 03 Sep 02:38:29 02:43:15 35° 95° (E) 02:47:58 437.025 USB, Beacon 2401.1428
ITAMSAT 1 03 Sep 02:43:24 02:47:00 19° 88° (E) 02:50:34 435.822 SSB
Uribyol 2 03 Sep 02:52:12 02:56:18 23° 91° (E) 03:00:22 436.500 FM
KITSAT 1 03 Sep 03:00:03 03:07:34 40° 337° (NNW) 03:15:06 435.175 FM
TMSAT-1 03 Sep 03:10:35 03:12:43 12° 83° (E) 03:14:50 436.925 FM
JAS-1B 03 Sep 03:11:40 03:17:43 32° 90° (E) 03:23:02 435.800 - 435.900 CW/SSB
AO-27 03 Sep 03:12:42 03:17:20 31° 95° (E) 03:21:55 436.795 MHz FM
Sapphire 03 Sep 03:15:23 03:19:34 23° 251° (WSW) 03:23:44 437.095 MHz 1200 baud AX-25 AFSK
Oscar 19 03 Sep 03:42:04 03:47:19 81° 288° (WNW) 03:52:30 437.125 CW, 437.150 USB
AO-Echo 03 Sep 03:43:40 03:48:19 59° 101° (ESE) 03:52:59 ?
OPAL 03 Sep 03:44:03 03:48:28 30° 57° (ENE) 03:52:57 ?
PCSat 03 Sep 03:45:48 03:48:16 13° 257° (WSW) 03:50:43 145.825 MHz
AO-7 03 Sep 03:50:53 03:51:25 10° 76° (ENE) 03:51:58 29.400 - 29.500 MHz
Gurwin Techsat 1B 03 Sep 03:59:06 04:04:04 38° 96° (E) 04:08:59 435.225 FM
SO-50 03 Sep 03:59:13 04:03:22 37° 122° (ESE) 04:07:38 436.795 FM
Saudisat 1A 03 Sep 04:10:46 04:14:04 20° 13° (NNE) 04:17:22 436.775 MHz
Oscar 16 03 Sep 04:17:48 04:22:44 44° 295° (WNW) 04:27:38 437.025 USB, Beacon 2401.1428
ITAMSAT 1 03 Sep 04:21:55 04:27:08 80° 288° (WNW) 04:32:20 435.822 SSB
Uribyol 2 03 Sep 04:31:05 04:36:15 66° 291° (WNW) 04:41:24 436.500 FM
Uosat F 03 Sep 04:38:23 04:40:57 14° 86° (E) 04:43:31 435.120 FM
TMSAT-1 03 Sep 04:48:20 04:53:39 69° 103° (ESE) 04:58:56 436.925 FM
AO-27 03 Sep 04:52:04 04:57:03 48° 294° (WNW) 05:02:01 436.795 MHz FM
KITSAT 1 03 Sep 04:58:06 05:05:14 32° 6° (N) 05:12:21 435.175 FM
JAS-1B 03 Sep 05:02:04 05:08:55 57° 296° (WNW) 05:14:47 435.800 - 435.900 CW/SSB
OPAL 03 Sep 05:22:07 05:27:07 55° 257° (WSW) 05:32:14 ?
Oscar 19 03 Sep 05:22:34 05:25:56 18° 308° (NW) 05:29:17 437.125 CW, 437.150 USB
AO-Echo 03 Sep 05:23:04 05:26:48 24° 301° (WNW) 05:30:32 ?
STRAND 1 03 Sep 05:34:47 05:38:01 17° 52° (NE) 05:41:15 ?
AO-7 03 Sep 05:38:37 05:46:34 47° 100° (E) 05:54:27 29.400 - 29.500 MHz
Gurwin Techsat 1B 03 Sep 05:39:08 05:44:06 41° 296° (WNW) 05:49:03 435.225 FM
SO-50 03 Sep 05:39:28 05:43:53 48° 323° (NW) 05:48:25 436.795 FM
UOSAT-12 03 Sep 05:40:15 05:44:25 33° 120° (ESE) 05:48:40 437.025 FM, 437.400 FM
Saudisat 1A 03 Sep 05:50:22 05:54:39 45° 36° (NE) 05:58:55 436.775 MHz
Oscar 16 03 Sep 06:00:00 06:00:52 10° 316° (NW) 06:01:44 437.025 USB, Beacon 2401.1428
ITAMSAT 1 03 Sep 06:02:35 06:05:55 18° 308° (NW) 06:09:14 435.822 SSB
Uribyol 2 03 Sep 06:12:01 06:14:50 15° 311° (NW) 06:17:39 436.500 FM
Uosat F 03 Sep 06:15:31 06:20:34 82° 106° (ESE) 06:25:35 435.120 FM
TMSAT-1 03 Sep 06:28:56 06:33:10 25° 303° (WNW) 06:37:23 436.925 FM
AO-27 03 Sep 06:33:53 06:35:26 11° 315° (NW) 06:37:00 436.795 MHz FM
Hamsat 03 Sep 06:43:59 06:47:29 23° 91° (E) 06:50:56 145.90 MHz
JAS-1B 03 Sep 06:53:49 06:57:57 17° 322° (NW) 07:01:44 435.800 - 435.900 CW/SSB
KITSAT 1 03 Sep 06:54:40 07:02:33 51° 34° (NE) 07:10:23 435.175 FM
JAS-2 03 Sep 06:56:35 07:01:13 30° 95° (E) 07:06:06 435.800 - 435.900 CW/SSB, 435.910 FM
STRAND 1 03 Sep 07:11:24 07:16:30 81° 72° (ENE) 07:21:37 ?
UOSAT-12 03 Sep 07:19:50 07:24:26 54° 321° (NW) 07:29:06 437.025 FM, 437.400 FM
SO-50 03 Sep 07:21:54 07:25:29 22° 347° (NNW) 07:29:07 436.795 FM
Saudisat 1A 03 Sep 07:30:07 07:34:13 38° 237° (WSW) 07:38:18 436.775 MHz
AO-7 03 Sep 07:31:33 07:39:34 56° 302° (WNW) 07:47:33 29.400 - 29.500 MHz
RS-15 03 Sep 07:38:18 07:48:08 40° 111° (ESE) 07:57:52 29.354 - 29.394 USB, Beacon 29.352 USB
Uosat F 03 Sep 07:55:13 07:58:49 20° 306° (NW) 08:02:25 435.120 FM
Hamsat 03 Sep 08:19:29 08:23:43 50° 291° (WNW) 08:27:54 145.90 MHz
SO-67 03 Sep 08:22:34 08:25:46 33° 97° (E) 08:28:56 435.3500 MHz FM
JAS-2 03 Sep 08:41:35 08:46:36 49° 294° (WNW) 08:51:55 435.800 - 435.900 CW/SSB, 435.910 FM
KITSAT 1 03 Sep 08:50:20 08:58:17 63° 238° (WSW) 09:06:12 435.175 FM
STRAND 1 03 Sep 08:52:54 08:56:20 18° 272° (W) 08:59:47 ?
UOSAT-12 03 Sep 09:01:47 09:05:32 23° 344° (NNW) 09:09:20 437.025 FM, 437.400 FM
SO-50 03 Sep 09:03:59 09:07:33 21° 12° (NNE) 09:11:11 436.795 FM
HO-68 03 Sep 09:15:52 09:20:43 19° 85° (E) 09:25:32 435.675 MHz FM
AO-7 03 Sep 09:25:06 09:30:45 21° 326° (NW) 09:36:23 29.400 - 29.500 MHz
RS-15 03 Sep 09:48:37 09:59:38 80° 317° (NW) 10:10:41 29.354 - 29.394 USB, Beacon 29.352 USB
SO-67 03 Sep 09:55:54 09:58:42 23° 295° (WNW) 10:01:29 435.3500 MHz FM
UKube-1 03 Sep 10:22:22 10:25:54 24° 93° (E) 10:29:24 145.840 MHz, 145.915 MHz
Oscar 11 03 Sep 10:24:54 10:28:02 19° 90° (E) 10:31:08 145.825 FM, Beacon 2401.500 USB
JAS-2 03 Sep 10:29:24 10:30:37 11° 315° (NW) 10:31:52 435.800 - 435.900 CW/SSB, 435.910 FM
UOSAT-12 03 Sep 10:43:38 10:47:12 21° 9° (N) 10:50:46 437.025 FM, 437.400 FM
SO-50 03 Sep 10:44:41 10:49:13 44° 35° (NE) 10:53:50 436.795 FM
KITSAT 1 03 Sep 10:47:30 10:52:08 17° 261° (W) 10:56:45 435.175 FM
ISS 03 Sep 10:59:00 11:01:49 26° 150° (SSE) 11:04:39 145.800 FM
FUNcube-1 03 Sep 11:00:20 11:03:39 19° 90° (E) 11:06:58 145.950 - 145.970 MHz USB
HO-68 03 Sep 11:02:24 11:09:37 78° 107° (ESE) 11:16:47 435.675 MHz FM
AO-7 03 Sep 11:18:12 11:20:28 11° 353° (N) 11:22:44 29.400 - 29.500 MHz
Oscar 19 03 Sep 11:51:24 11:52:47 11° 45° (NE) 11:54:10 437.125 CW, 437.150 USB
UKube-1 03 Sep 11:58:09 12:02:21 48° 292° (WNW) 12:06:32 145.840 MHz, 145.915 MHz
Oscar 11 03 Sep 12:00:17 12:04:38 62° 289° (WNW) 12:08:57 145.825 FM, Beacon 2401.500 USB
RS-15 03 Sep 12:03:12 12:13:39 47° 348° (NNW) 12:24:14 29.354 - 29.394 USB, Beacon 29.352 USB
JAS-1B 03 Sep 12:14:02 12:19:55 20° 43° (NE) 12:25:17 435.800 - 435.900 CW/SSB
UOSAT-12 03 Sep 12:24:04 12:28:32 39° 32° (NNE) 12:32:59 437.025 FM, 437.400 FM
Oscar 16 03 Sep 12:24:17 12:27:48 19° 53° (NE) 12:31:20 437.025 USB, Beacon 2401.1428
SO-50 03 Sep 12:25:19 12:29:53 46° 236° (SW) 12:34:30 436.795 FM
ITAMSAT 1 03 Sep 12:31:47 12:33:28 12° 45° (NE) 12:35:10 435.822 SSB
ISS 03 Sep 12:34:55 12:38:13 66° 170° (S) 12:41:32 145.800 FM
FUNcube-1 03 Sep 12:35:57 12:40:27 65° 289° (WNW) 12:45:01 145.950 - 145.970 MHz USB
Uribyol 2 03 Sep 12:39:48 12:42:17 14° 48° (NE) 12:44:47 436.500 FM
HO-68 03 Sep 12:50:42 12:56:47 31° 309° (NW) 13:02:51 435.675 MHz FM
MaSat-1 03 Sep 12:55:44 13:00:01 28° 109° (ESE) 13:04:22 437.345 MHz
AO-27 03 Sep 12:59:42 13:03:05 18° 52° (NE) 13:06:29 436.795 MHz FM
AO-7 03 Sep 13:05:54 13:09:50 14° 21° (NNE) 13:13:47 29.400 - 29.500 MHz
AO-Echo 03 Sep 13:25:04 13:29:01 25° 59° (ENE) 13:32:54 ?
Oscar 19 03 Sep 13:26:01 13:30:58 47° 66° (ENE) 13:35:56 437.125 CW, 437.150 USB
Oscar 11 03 Sep 13:38:36 13:39:59 11° 309° (NW) 13:41:22 145.825 FM, Beacon 2401.500 USB
Gurwin Techsat 1B 03 Sep 13:48:13 13:52:08 21° 54° (NE) 13:56:04 435.225 FM
JAS-1B 03 Sep 14:00:01 14:09:08 58° 64° (ENE) 14:17:00 435.800 - 435.900 CW/SSB
Oscar 16 03 Sep 14:01:18 14:06:29 87° 73° (ENE) 14:11:43 437.025 USB, Beacon 2401.1428
UOSAT-12 03 Sep 14:04:16 14:08:54 54° 234° (SW) 14:13:28 437.025 FM, 437.400 FM
ITAMSAT 1 03 Sep 14:06:54 14:11:52 49° 66° (ENE) 14:16:51 435.822 SSB
ISS 03 Sep 14:11:33 14:14:53 68° 189° (S) 14:18:12 145.800 FM
FUNcube-1 03 Sep 14:14:12 14:16:03 12° 308° (NW) 14:17:55 145.950 - 145.970 MHz USB
Uribyol 2 03 Sep 14:15:45 14:20:49 60° 68° (ENE) 14:25:55 436.500 FM
